COSMOS 2251 DEB, 34040

Orbit data source: Space-Track

COSMOS 2251 DEB, 34040 is space debris in LEO originally from a launch on Wed, 16 Jun 1993 UTC launched from the Plesetsk Missile And Space Complex (PKMTR). The debris from Iridium 33, an American commercial communications satellite, has been tracked extensively since its accidental collision with the defunct Russian satellite Cosmos 2251 in 2009. This event, occurring at high speed in low Earth orbit (LEO), generated thousands of pieces of space debris, significantly increasing the risk of further collisions. The Iridium 33 debris cloud has impacted space traffic management and orbital debris mitigation strategies, making it a subject of ongoing study in space situational awareness.

Loading next visibility...
Identifier
34040, 1993-036JB
Orbit
LEO
Country
Flag of CISCIS
Related business
Manufacturer
Unknown
Mission
Spacecraft
Bus & Motor
Unknown
Mass
Unknown
Launch date (UTC)
Icon of a cake. It is the launch day of the satellite!1993-06-16 (33 years ago)
Launch vehicle
Unknown
Launch site
Plesetsk Missile And Space Complex (PKMTR)
Object type
Payload
Rocket body
Debris
Shape & HBR
Unknown shape, 0.1 m
Radar Cross Section
Medium (>0.1 m² and <1 m²)

Expand to show TLE details & history
Last TLE update: 13 hours ago

TLE from 13 hours ago
0 COSMOS 2251 DEB
1 34040U 93036JB  26167.10545179  .00001584  00000-0  12484-2 0  9995
2 34040  73.9561 119.3902 0336520  36.4813 325.8725 13.69064735861363
Epoch: 2026-06-16T02:31Z
TLE epoch observation values (Epoch: 2026-06-16T02:31:51.034Z)
Latitude
-0.00005°
Longitude
177.04528°
Altitude
802.554 km
Speed
7.554 km/s
True Right ascension
07h 57m 33s
True Declination
0° 00' 00"
Sunlit
Object was in daylight at epoch
Visualization orbit readout
Latitude
Unknown
Longitude
Unknown
Altitude
Unknown
Speed
Unknown
Apparent Right ascension
Unknown
Apparent Declination
Unknown
Sunlit
N/A
Visualization observer readout
Local Sidereal Time
02:33:23
Azimuth
Unknown
Elevation
Unknown
Doppler factor
Unknown
Orbital elements
Apogee altitude
1,248.942 km
Perigee altitude
752.322 km
Semi-major axis
7,378.769 km
Eccentricity
0.03365
Inclination
73.9561°
RAAN
119.3902°
Arg. of periapsis
36.4813°
True anomaly
323.63165°
Mean anomaly
325.8725°
Eccentric anomaly
324.75997°
Mean motion
3.42426 °/min
Orbital period
105.13 mins
BSTAR
0.0012484

Documentation

Showing up to 5 results
|